Theta_e
296 295 295 295 295 294 294 294 296 297 297 298 298 297 296 295 293 292 291 290 289 288
291 292 293 294 293 293 294 293 293 293 293 293 293 293 292 290 289 288 288 287 287 286
288 289 290 291 290 290 291 291 290 290 290 289 289 289 288 287 287 286 286 285 285 284
286 286 287 287 287 288 288 288 287 287 286 286 286 286 286 285 285 284 283 284 283 282
285 285 285 284 285 286 285 285 285 285 284 284 284 284 283 283 283 282 282 281 281 281
283 283 283 283 283 283 283 283 283 283 282 282 282 282 282 282 281 281 281 281 280 280
282 282 282 282 283 283 282 282 281 281 281 281 281 281 281 281 281 281 281 281 280 280
282 282 282 282 282 282 282 281 282 281 281 281 281 281 281 281 281 280 280 281 282 282
282 282 282 282 282 282 281 281 281 281 281 281 282 283 283 281 280 280 279 279 280 280
282 282 281 281 281 281 280 281 280 281 281 281 283 284 283 282 280 279 279 279 278 278
282 281 281 281 281 281 281 280 280 280 281 281 282 284 283 281 279 279 278 278 278 277
282 281 281 281 280 280 281 280 280 281 280 281 281 284 283 280 279 278 277 278 278 278
282 282 281 281 280 281 281 281 281 281 280 279 281 284 283 280 279 277 277 278 278 279
282 282 281 281 280 280 280 281 280 280 280 280 280 282 283 282 279 279 277 278 278 280
Wind_Speed
11 7 8 9 7 8 8 8 11 10 10 10 11 11 10 8 8 9 8 11 8 6
11 12 10 11 10 8 8 9 11 12 12 12 11 12 11 7 10 9 8 9 9 8
10 12 11 9 11 11 10 11 11 12 12 12 11 11 10 9 10 11 8 7 9 9
9 10 10 10 10 10 10 10 11 11 12 12 12 11 12 12 11 13 11 9 10 11
8 9 10 10 11 11 11 10 10 10 12 12 12 11 11 12 10 11 11 9 10 11
6 7 9 9 9 10 10 10 11 10 11 11 11 12 11 10 11 10 10 10 10 9
5 6 7 7 9 10 9 11 10 10 10 10 10 11 11 11 11 11 11 11 11 11
4 5 6 7 8 8 9 9 10 11 10 9 8 6 10 11 11 11 12 12 11 11
5 5 5 5 6 8 8 8 9 9 10 10 7 12 14 12 10 11 11 11 10 10
5 5 5 4 4 5 5 6 8 7 9 10 9 15 14 13 8 9 9 9 9 9
6 6 5 5 5 3 3 6 6 6 6 8 8 16 16 15 9 8 7 8 8 8
7 8 7 7 6 4 4 2 4 5 6 7 7 17 18 13 9 9 7 6 7 7
8 8 8 6 6 4 3 4 2 5 3 4 6 13 14 12 7 9 7 5 6 8
9 9 8 7 4 5 5 4 4 4 3 4 4 7 12 12 6 6 7 6 4 4
Wind_Direction
39 49 54 52 59 56 50 42 42 54 64 72 84 88 86 81 81 80 80 84 80 79
31 41 47 52 56 53 57 61 55 60 66 64 74 81 88 92 85 81 76 80 84 78
44 38 37 46 57 60 62 62 65 65 64 64 64 69 78 74 71 80 68 65 73 69
55 56 53 48 45 52 61 62 65 68 68 65 66 65 75 71 72 73 73 65 71 70
55 66 68 65 57 52 57 57 73 77 78 74 70 66 72 82 76 84 86 84 81 74
67 72 79 83 76 70 66 56 54 65 72 76 73 77 71 78 79 77 74 73 78 76
70 74 78 76 80 80 78 80 70 60 66 72 81 87 87 79 79 76 72 67 66 67
81 74 79 83 85 89 90 93 96 91 77 73 71 86 96 100 96 88 80 70 72 69
94 79 72 78 82 96 98 97 97 98 98 89 89 100 103 102 102 100 98 95 84 76
121 120 110 91 88 100 100 108 106 111 117 114 114 117 111 104 103 105 109 116 112 98
153 136 133 130 116 102 113 123 124 123 118 120 125 125 120 112 106 103 101 106 111 114
167 156 159 155 144 135 138 131 133 138 138 135 136 141 138 131 124 115 112 116 121 122
174 166 168 159 162 140 150 142 133 139 131 123 139 156 154 144 137 134 134 126 125 128
177 174 169 159 154 151 145 145 148 145 154 160 166 174 171 167 155 149 146 144 147 143